When you browse on this site, cookies collect data to enhance your experience and personalize the content and advertising you see.
Visit our Privacy Policy to learn more. By continuing to use the site, you agree to this use of cookies and data.
  • In Portugal
  • List of Countries
  • For 7 days
  • Water Temperature
  • Satellite Maps
  • Weather Map
  • Weather Widgets
  • user-avatar
    Login

    Hourly Weather Ameliowka

    Today, 24 March, Sunday

    Time Temperature Precipitation Wind Pressure Humidity
    00:00 +8°C° 0 mm 2 mps 739 mmHg 71%
    01:00 +8°C° 0 mm 2 mps 739 mmHg 78%
    02:00 +7°C° 0 mm 3 mps 739 mmHg 83%
    03:00 +6°C° 0 mm 4 mps 739 mmHg 88%
    04:00 +6°C° 0 mm 4 mps 739 mmHg 92%
    05:00 +5°C° 0 mm 4 mps 739 mmHg 89%
    06:00 +5°C° 0 mm 4 mps 739 mmHg 86%
    07:00 +4°C° 0 mm 4 mps 739 mmHg 83%
    08:00 +7°C° 0 mm 3 mps 740 mmHg 72%
    09:00 +8°C° 0 mm 3 mps 740 mmHg 61%
    10:00 +9°C° 0 mm 3 mps 740 mmHg 50%
    11:00 +9°C° 0 mm 3 mps 739 mmHg 45%
    12:00 +10°C° 0 mm 3 mps 739 mmHg 40%
    13:00 +12°C° 0 mm 2 mps 738 mmHg 34%
    14:00 +12°C° 0 mm 2 mps 738 mmHg 34%
    15:00 +12°C° 0 mm 2 mps 737 mmHg 33%
    16:00 +12°C° 0 mm 2 mps 736 mmHg 33%
    17:00 +10°C° 0 mm 2 mps 736 mmHg 37%
    18:00 +9°C° 0 mm 2 mps 736 mmHg 41%
    19:00 +9°C° 0 mm 1 mps 736 mmHg 46%
    20:00 +8°C° 0 mm 1 mps 735 mmHg 47%
    21:00 +7°C° 0 mm 0 mps 735 mmHg 49%
    22:00 +7°C° 0 mm 0 mps 734 mmHg 51%
    23:00 +7°C° 0 mm 0 mps 734 mmHg 54%

    Tomorrow, 25 March, Monday

    Time Temperature Precipitation Wind Pressure Humidity
    00:00 +6°C° 0 mm 0 mps 734 mmHg 57%
    01:00 +7°C° 0 mm 1 mps 733 mmHg 59%
    02:00 +7°C° 0 mm 1 mps 733 mmHg 61%
    03:00 +6°C° 0 mm 1 mps 732 mmHg 63%
    04:00 +6°C° 0 mm 1 mps 732 mmHg 66%
    05:00 +5°C° 0 mm 2 mps 732 mmHg 64%
    06:00 +5°C° 0 mm 2 mps 731 mmHg 63%
    07:00 +5°C° 0 mm 2 mps 731 mmHg 62%
    08:00 +6°C° 0 mm 2 mps 731 mmHg 57%
    09:00 +8°C° 0 mm 3 mps 731 mmHg 51%
    10:00 +9°C° 0 mm 3 mps 731 mmHg 45%
    11:00 +8°C° 0.1 mm 4 mps 730 mmHg 44%
    12:00 +8°C° 0.1 mm 4 mps 730 mmHg 42%
    13:00 +9°C° 0.1 mm 5 mps 729 mmHg 41%
    14:00 +8°C° 0 mm 5 mps 729 mmHg 41%
    15:00 +8°C° 0 mm 5 mps 729 mmHg 42%
    16:00 +8°C° 0 mm 5 mps 729 mmHg 42%
    17:00 +6°C° 0.1 mm 4 mps 730 mmHg 50%
    18:00 +5°C° 0.1 mm 4 mps 731 mmHg 58%
    19:00 +4°C° 0.1 mm 3 mps 731 mmHg 67%
    20:00 +4°C° 0.1 mm 4 mps 732 mmHg 69%
    21:00 +3°C° 0.1 mm 4 mps 733 mmHg 72%
    22:00 +3°C° 0.1 mm 4 mps 733 mmHg 75%
    23:00 +1°C° 0 mm 4 mps 734 mmHg 78%

    Day after tomorrow, 26 March, Tuesday

    Time Temperature Precipitation Wind Pressure Humidity
    00:00 +1°C° 0 mm 4 mps 734 mmHg 81%
    01:00 +1°C° 0 mm 4 mps 735 mmHg 84%
    02:00 0°C° 0 mm 4 mps 735 mmHg 86%
    03:00 0°C° 0 mm 4 mps 736 mmHg 88%
    04:00 0°C° 0 mm 3 mps 736 mmHg 89%
    05:00 -1°C° 0 mm 4 mps 737 mmHg 87%
    06:00 0°C° 0 mm 4 mps 737 mmHg 85%
    07:00 0°C° 0 mm 4 mps 738 mmHg 83%
    08:00 0°C° 0 mm 4 mps 738 mmHg 79%
    09:00 +1°C° 0 mm 5 mps 739 mmHg 75%
    10:00 +2°C° 0 mm 5 mps 739 mmHg 71%
    11:00 +3°C° 0 mm 5 mps 739 mmHg 64%
    12:00 +5°C° 0 mm 5 mps 739 mmHg 57%
    13:00 +6°C° 0 mm 5 mps 739 mmHg 51%
    14:00 +5°C° 0 mm 6 mps 739 mmHg 50%
    15:00 +5°C° 0 mm 6 mps 738 mmHg 49%
    16:00 +7°C° 0 mm 6 mps 738 mmHg 48%
    17:00 +6°C° 0 mm 5 mps 738 mmHg 52%
    18:00 +5°C° 0 mm 4 mps 738 mmHg 57%
    19:00 +4°C° 0 mm 4 mps 739 mmHg 61%
    20:00 +4°C° 0 mm 4 mps 739 mmHg 64%
    21:00 +3°C° 0 mm 4 mps 739 mmHg 66%
    22:00 +3°C° 0 mm 4 mps 740 mmHg 69%
    23:00 +2°C° 0 mm 3 mps 740 mmHg 72%

    27 March, Wednesday

    Time Temperature Precipitation Wind Pressure Humidity
    00:00 +2°C° 0 mm 3 mps 740 mmHg 75%
    01:00 +2°C° 0 mm 2 mps 740 mmHg 78%
    02:00 +2°C° 0 mm 2 mps 740 mmHg 82%
    03:00 +1°C° 0 mm 2 mps 741 mmHg 86%
    04:00 +1°C° 0 mm 1 mps 741 mmHg 90%
    05:00 +2°C° 0 mm 1 mps 741 mmHg 87%
    06:00 +2°C° 0 mm 1 mps 741 mmHg 84%
    07:00 +3°C° 0 mm 1 mps 742 mmHg 81%
    08:00 +4°C° 0 mm 1 mps 742 mmHg 72%
    09:00 +5°C° 0 mm 2 mps 742 mmHg 63%
    10:00 +6°C° 0 mm 2 mps 742 mmHg 55%
    11:00 +7°C° 0 mm 2 mps 742 mmHg 50%
    12:00 +8°C° 0 mm 3 mps 742 mmHg 46%
    13:00 +9°C° 0 mm 3 mps 742 mmHg 42%
    14:00 +9°C° 0 mm 3 mps 742 mmHg 42%
    15:00 +9°C° 0 mm 3 mps 742 mmHg 42%
    16:00 +9°C° 0 mm 3 mps 742 mmHg 43%
    17:00 +8°C° 0 mm 3 mps 742 mmHg 49%
    18:00 +7°C° 0 mm 2 mps 742 mmHg 54%
    19:00 +6°C° 0 mm 2 mps 742 mmHg 60%
    20:00 +6°C° 0.1 mm 2 mps 742 mmHg 65%
    21:00 +6°C° 0.1 mm 2 mps 742 mmHg 70%
    22:00 +6°C° 0.1 mm 2 mps 742 mmHg 75%
    23:00 +5°C° 0 mm 2 mps 742 mmHg 78%

    28 March, Thursday

    Time Temperature Precipitation Wind Pressure Humidity
    00:00 +5°C° 0 mm 2 mps 743 mmHg 80%
    01:00 +5°C° 0 mm 2 mps 743 mmHg 82%
    02:00 +4°C° 0 mm 2 mps 743 mmHg 84%
    03:00 +4°C° 0 mm 2 mps 743 mmHg 86%
    04:00 +4°C° 0 mm 2 mps 743 mmHg 89%
    05:00 +4°C° 0.1 mm 2 mps 743 mmHg 89%
    06:00 +5°C° 0.1 mm 2 mps 743 mmHg 89%
    07:00 +5°C° 0.1 mm 2 mps 743 mmHg 90%
    08:00 +6°C° 0.1 mm 2 mps 744 mmHg 85%
    09:00 +8°C° 0.1 mm 1 mps 744 mmHg 81%
    10:00 +9°C° 0.1 mm 1 mps 744 mmHg 76%
    11:00 +10°C° 0.2 mm 1 mps 744 mmHg 71%
    12:00 +10°C° 0.2 mm 1 mps 744 mmHg 67%
    13:00 +11°C° 0.2 mm 1 mps 743 mmHg 62%
    14:00 +10°C° 0.1 mm 2 mps 743 mmHg 62%
    15:00 +10°C° 0.1 mm 2 mps 743 mmHg 62%
    16:00 +10°C° 0.1 mm 2 mps 743 mmHg 62%
    17:00 +10°C° 0 mm 1 mps 743 mmHg 67%
    18:00 +9°C° 0 mm 1 mps 743 mmHg 71%
    19:00 +8°C° 0 mm 1 mps 743 mmHg 76%
    20:00 +7°C° 0 mm 1 mps 744 mmHg 78%
    21:00 +6°C° 0 mm 1 mps 744 mmHg 80%
    22:00 +6°C° 0 mm 1 mps 744 mmHg 83%
    23:00 +5°C° 0 mm 1 mps 744 mmHg 84%

    29 March, Friday

    Time Temperature Precipitation Wind Pressure Humidity
    00:00 +4°C° 0 mm 0 mps 744 mmHg 85%
    01:00 +4°C° 0 mm 0 mps 744 mmHg 86%
    02:00 +3°C° 0 mm 0 mps 744 mmHg 86%
    03:00 +3°C° 0 mm 0 mps 744 mmHg 87%
    04:00 +3°C° 0 mm 0 mps 744 mmHg 88%
    05:00 +4°C° 0 mm 0 mps 744 mmHg 84%
    06:00 +4°C° 0 mm 0 mps 745 mmHg 81%
    07:00 +5°C° 0 mm 0 mps 745 mmHg 78%
    08:00 +7°C° 0 mm 0 mps 745 mmHg 70%
    09:00 +10°C° 0 mm 1 mps 745 mmHg 63%
    10:00 +12°C° 0 mm 1 mps 745 mmHg 55%
    11:00 +12°C° 0 mm 1 mps 745 mmHg 51%
    12:00 +13°C° 0 mm 1 mps 744 mmHg 47%
    13:00 +14°C° 0 mm 1 mps 744 mmHg 43%
    14:00 +14°C° 0 mm 1 mps 744 mmHg 43%
    15:00 +14°C° 0 mm 1 mps 743 mmHg 43%
    16:00 +14°C° 0 mm 2 mps 743 mmHg 42%
    17:00 +12°C° 0 mm 1 mps 743 mmHg 47%
    18:00 +11°C° 0 mm 1 mps 743 mmHg 52%
    19:00 +9°C° 0 mm 1 mps 743 mmHg 57%
    20:00 +9°C° 0 mm 1 mps 743 mmHg 59%
    21:00 +8°C° 0 mm 1 mps 743 mmHg 61%
    22:00 +8°C° 0 mm 1 mps 743 mmHg 63%
    23:00 +7°C° 0 mm 1 mps 743 mmHg 65%
    Show more